[[{"header":{"parameterUnit":"m.s-1","parameterCategory":1,"la1":30.2991,"la2":30.254,"lo1":-89.0895,"lo2":-89.0444,"dy":0.0017,"dx":0.0017,"nx":28,"ny":28,"refTime":"2025-09-18T21:00:00:Z","depth":0,"parameterNumber":2,"parameterNumberName":"U-component_of_WINDS"},"data":[0,0,0,0,0,0,0,0,0,0,0,0,0,0,0,0,0,0,0,0,0,0,0,0,0,0,0,0,0,0,0,0,0,0,0,0,0,0,0,0,0,0,0,0,0,0,0,0,0,0,0,0,0,0,0,0,0,0,2.6075,2.6076,0,2.6154,2.6155,2.6156,2.6126,2.6125,2.6123,2.6121,2.6197,2.6201,2.6204,0,0,0,0,0,0,0,0,0,0,0,0,0,2.5895,2.5898,2.6075,2.6076,2.6077,2.6154,2.6155,2.6156,2.6127,2.6125,2.6122,2.612,2.6196,2.62,2.6205,0,0,0,0,0,0,0,0,0,0,0,0,0,2.5973,2.5899,2.6075,2.6072,2.6072,2.6154,2.6155,2.6156,2.6127,2.6125,2.6122,2.6119,2.6194,2.62,2.6205,2.6293,0,0,2.6222,2.6224,0,0,0,0,0,0,0,0,2.5969,2.598,2.6071,2.6072,2.6073,2.6128,2.6119,2.6202,2.6128,2.6106,2.6121,2.6118,2.6176,2.6183,2.6203,2.6296,2.6299,2.6223,2.6226,2.6228,2.623,0,0,0,0,0,0,0,2.5963,2.5976,2.6106,2.6072,2.6073,2.6065,2.6073,2.6135,2.6155,2.6108,2.6106,2.6116,2.6176,2.6198,2.6205,2.6301,2.6222,2.6227,2.6231,2.6233,2.6471,2.6474,0,0,0,0,0,0,2.5958,2.5972,2.6103,2.6108,2.6013,2.6071,2.608,2.6113,2.6154,2.6158,2.6118,2.6114,2.619,2.6198,2.6207,2.6314,2.6228,2.6233,2.6237,2.6468,2.6472,2.6475,0,0,0,0,0,0,2.5954,2.597,2.61,2.604,2.6056,2.6077,2.6114,2.6116,2.6138,2.6162,2.6165,2.6138,2.6188,2.62,2.6272,2.6316,2.6236,2.6241,2.6465,2.6469,2.6473,2.6527,0,0,0,0,0,0,2.5949,2.5969,2.6003,2.6041,2.6059,2.6165,2.6116,2.6119,2.6148,2.6144,2.6181,2.6184,2.6187,2.6264,2.6278,2.6322,2.6245,2.6461,2.6467,2.6472,2.6521,2.6532,2.6542,0,0,0,0,0,2.5943,2.6013,2.6005,2.6021,2.6102,2.6168,2.6178,2.6181,2.6152,2.6186,2.6202,2.6183,2.6309,2.6272,2.6287,2.6334,2.6458,2.6465,2.6471,2.6516,2.653,2.6542,0,0,0,0,0,0,2.5978,2.6018,2.6009,2.6094,2.6128,2.6163,2.6206,2.6195,2.6236,2.6231,2.6231,2.6239,2.6315,2.6331,2.6289,2.6421,2.6379,2.6389,2.6408,2.6421,2.6432,2.6426,2.625,0,0,0,0,0,2.5996,2.6047,2.6079,2.6151,2.6168,2.6185,2.6213,2.6213,2.6247,2.626,2.6281,2.6314,2.6361,2.6392,2.6436,2.6523,2.6531,2.6563,2.6573,2.6582,2.6591,2.6639,2.6654,2.6497,2.6497,2.6497,0,0,2.6032,2.6061,2.6093,2.6158,2.6185,2.6237,2.6196,2.6253,2.6291,2.6268,2.634,2.6356,2.6393,2.6474,2.651,2.649,2.6636,2.6591,2.6597,2.6601,2.6648,2.6663,2.6676,2.6502,2.6501,2.65,0,0,2.6127,2.6153,2.6217,2.6245,2.6286,2.6297,2.6312,2.6349,2.636,2.6432,2.6416,2.6461,2.6542,2.657,2.6594,2.6701,2.6686,2.6716,2.6771,2.6818,2.683,2.6841,2.6881,2.6895,2.6724,2.6724,2.6724,0,2.6167,2.6246,2.625,2.631,2.6339,2.6323,2.6387,2.6414,2.6466,2.6487,2.6463,2.6566,2.6589,2.6677,2.6704,2.6724,2.6741,2.6711,2.6829,2.684,2.685,2.6887,2.6902,2.6728,2.6727,2.6727,2.6727,0,2.6294,2.635,2.6396,2.6451,2.6485,2.6546,2.6559,2.6593,2.659,2.6603,2.6677,2.6705,2.6756,2.6776,2.6773,2.6865,2.6851,2.6828,2.6786,2.6868,2.6903,2.6918,2.6733,2.6731,2.673,2.673,0,0,2.6411,2.6469,2.6486,2.6512,2.6557,2.6599,2.666,2.6712,2.6742,2.6779,2.683,2.69,2.688,2.6908,2.6908,2.6949,2.7034,2.6922,2.6922,2.6942,2.7138,2.7155,2.7172,2.7025,2.7027,2.7029,2.7135,0,2.651,2.6619,2.6625,2.6723,2.6775,2.6761,2.6814,2.6847,2.6861,2.6907,2.6921,2.6971,2.6941,2.6958,2.6999,2.7015,2.7073,2.7008,2.7071,2.7074,2.7064,2.719,2.7208,2.7307,2.7149,2.7151,2.7153,0,2.6639,2.6684,2.6788,2.6828,2.685,2.6897,2.6947,2.699,2.7027,2.7035,2.7067,2.7062,2.7123,2.7079,2.7164,2.7119,2.7146,2.7158,2.7162,2.7168,2.7119,2.72,2.7338,2.7353,2.7174,2.7173,2.7171,0,2.6716,2.6801,2.6875,2.6897,2.6945,2.6979,2.7,2.7036,2.7067,2.7109,2.713,2.7178,2.7205,2.7242,2.7249,2.7216,2.7335,2.7291,2.7342,2.7342,2.7368,2.7366,2.7513,2.7384,2.7384,2.7384,2.7383,0,2.6825,2.689,2.691,2.6956,2.7028,2.7034,2.7105,2.7123,2.7155,2.7204,2.7194,2.7239,2.7246,2.7293,2.7299,2.7369,2.7381,2.7388,2.7389,2.739,2.7389,2.7407,2.7401,2.7388,2.7387,2.7386,2.7385,0,2.6923,2.6939,2.7019,2.706,2.7071,2.7123,2.7156,2.72,2.7213,2.7275,2.7289,2.7311,2.7365,2.7377,2.7441,2.7445,2.7529,2.7522,2.7517,2.7517,2.7568,2.7564,2.7732,2.7755,2.7611,2.7612,2.7613,0,2.6992,2.7042,2.7089,2.7122,2.7146,2.7198,2.7231,2.7239,2.7274,2.7322,2.7359,2.7414,2.7458,2.7546,2.7566,2.7615,2.761,2.7666,2.7618,2.7617,2.7613,2.761,2.7615,2.7675,2.7677,2.7678,2.7679,0,2.7114,2.7121,2.7169,2.7222,2.7262,2.7303,2.7342,2.7369,2.7383,2.7422,2.748,2.7514,2.7581,2.7635,2.7685,2.7706,2.7695,2.7694,2.7709,2.771,2.7706,2.771,2.7543,2.769,2.7689,2.7688,2.7688,2.7687,2.72,2.7245,2.7286,2.7341,2.7372,2.7409,2.7453,2.7473,2.7522,2.7578,2.758,2.7643,2.768,2.7746,2.777,2.7819,2.7801,2.7822,2.7828,2.7833,2.7839,2.7698,2.7828,2.7827,2.7827,2.7827,2.7827,0,2.7323,2.7349,2.74,2.7457,2.75,2.7488,2.7531,2.7568,2.7625,2.7661,2.7705,2.7772,2.7825,2.785,2.7903,2.7937,2.7933,2.795,2.7948,2.7953,2.7851,2.7833,2.7953,2.7953,2.7952,2.7952,2.7952,2.7952,2.7392,2.7467,2.7479,2.7569,2.7594,2.7657,2.7683,2.7718,2.7747,2.7823,2.7868,2.7885,2.7917,2.7972,2.802,2.8026,2.8046,2.8066,2.807,2.7973,2.796,2.7948,2.7932,2.807,2.807,2.8168,2.8169,2.817]},{"header":{"parameterUnit":"m.s-1","parameterCategory":1,"la1":30.2991,"la2":30.254,"lo1":-89.0895,"lo2":-89.0444,"dy":0.0017,"dx":0.0017,"nx":28,"ny":28,"refTime":"2025-09-18T21:00:00:Z","depth":0,"parameterNumber":3,"parameterNumberName":"V-component_of_WINDS"},"data":[0,0,0,0,0,0,0,0,0,0,0,0,0,0,0,0,0,0,0,0,0,0,0,0,0,0,0,0,0,0,0,0,0,0,0,0,0,0,0,0,0,0,0,0,0,0,0,0,0,0,0,0,0,0,0,0,0,0,-2.4656,-2.4657,0,-2.4759,-2.4761,-2.4762,-2.4743,-2.4741,-2.4739,-2.4737,-2.4843,-2.4847,-2.4852,0,0,0,0,0,0,0,0,0,0,0,0,0,-2.4442,-2.4446,-2.4656,-2.4657,-2.4659,-2.4759,-2.4761,-2.4762,-2.4743,-2.4741,-2.4739,-2.4737,-2.4842,-2.4847,-2.4852,0,0,0,0,0,0,0,0,0,0,0,0,0,-2.4539,-2.4447,-2.4656,-2.4661,-2.4663,-2.4759,-2.4761,-2.4762,-2.4744,-2.4741,-2.4738,-2.4736,-2.484,-2.4846,-2.4853,-2.495,0,0,-2.4874,-2.4877,0,0,0,0,0,0,0,0,-2.4533,-2.4547,-2.4659,-2.4661,-2.4663,-2.4735,-2.4724,-2.4825,-2.4744,-2.4713,-2.4737,-2.4734,-2.4809,-2.4818,-2.4844,-2.4955,-2.4959,-2.4874,-2.4878,-2.4881,-2.4883,0,0,0,0,0,0,0,-2.4527,-2.4542,-2.4697,-2.4661,-2.4663,-2.4658,-2.4669,-2.4743,-2.4775,-2.4716,-2.4714,-2.4727,-2.481,-2.4837,-2.4846,-2.4961,-2.4874,-2.488,-2.4884,-2.4887,-2.5156,-2.5159,0,0,0,0,0,0,-2.4518,-2.4537,-2.4694,-2.47,-2.459,-2.4664,-2.4677,-2.4715,-2.4775,-2.4781,-2.4729,-2.4726,-2.4827,-2.4838,-2.485,-2.4967,-2.4881,-2.4888,-2.4892,-2.5153,-2.5157,-2.516,0,0,0,0,0,0,-2.4514,-2.4532,-2.4689,-2.4618,-2.4638,-2.4671,-2.4714,-2.4718,-2.4746,-2.4785,-2.479,-2.4751,-2.4825,-2.484,-2.4925,-2.4971,-2.4891,-2.4897,-2.5149,-2.5154,-2.5158,-2.5203,0,0,0,0,0,0,-2.4508,-2.4531,-2.4568,-2.4619,-2.4642,-2.4763,-2.4717,-2.4722,-2.4758,-2.4754,-2.4807,-2.4813,-2.4824,-2.4915,-2.4932,-2.4979,-2.4902,-2.5146,-2.5152,-2.5157,-2.5197,-2.5208,-2.5218,0,0,0,0,0,-2.45,-2.4577,-2.457,-2.4589,-2.4689,-2.4766,-2.4779,-2.479,-2.4761,-2.4799,-2.4824,-2.4812,-2.4963,-2.4924,-2.4943,-2.4992,-2.5143,-2.515,-2.5157,-2.5193,-2.5206,-2.5218,0,0,0,0,0,0,-2.4531,-2.4583,-2.4577,-2.4672,-2.4715,-2.4763,-2.4811,-2.4804,-2.4856,-2.485,-2.4862,-2.4874,-2.496,-2.4984,-2.494,-2.5089,-2.5049,-2.506,-2.507,-2.5083,-2.5093,-2.5085,-2.4908,0,0,0,0,0,-2.4548,-2.4607,-2.4649,-2.473,-2.4751,-2.4777,-2.4811,-2.4816,-2.4861,-2.4879,-2.491,-2.4953,-2.501,-2.5048,-2.5103,-2.5201,-2.5212,-2.5244,-2.5254,-2.5262,-2.5272,-2.5325,-2.534,-2.5183,-2.5183,-2.5183,0,0,-2.4586,-2.4622,-2.4658,-2.4737,-2.477,-2.483,-2.4793,-2.4858,-2.4902,-2.4888,-2.497,-2.4995,-2.5044,-2.5136,-2.5178,-2.5159,-2.5317,-2.5271,-2.5277,-2.5282,-2.5334,-2.5348,-2.5362,-2.5188,-2.5187,-2.5186,0,0,-2.4685,-2.4718,-2.4788,-2.4822,-2.4873,-2.489,-2.4907,-2.4956,-2.4972,-2.5054,-2.5045,-2.5098,-2.5196,-2.5232,-2.5262,-2.5374,-2.5364,-2.5391,-2.5445,-2.5497,-2.5509,-2.552,-2.556,-2.5574,-2.5401,-2.5401,-2.5401,0,-2.4725,-2.4815,-2.4825,-2.4891,-2.4926,-2.4916,-2.4987,-2.502,-2.5086,-2.511,-2.5088,-2.5211,-2.5243,-2.5343,-2.537,-2.5396,-2.5415,-2.5386,-2.5506,-2.5518,-2.5528,-2.5566,-2.5581,-2.5404,-2.5403,-2.5403,-2.5403,0,-2.4862,-2.4924,-2.4975,-2.5039,-2.508,-2.5148,-2.5168,-2.5207,-2.5209,-2.5228,-2.5312,-2.535,-2.5412,-2.5436,-2.5438,-2.5536,-2.5523,-2.5503,-2.5464,-2.5546,-2.5582,-2.5597,-2.5408,-2.5407,-2.5406,-2.5405,0,0,-2.4984,-2.5053,-2.5071,-2.51,-2.5155,-2.5204,-2.5271,-2.5332,-2.5366,-2.5411,-2.5468,-2.5551,-2.5533,-2.5568,-2.5574,-2.562,-2.5706,-2.5594,-2.5596,-2.5614,-2.5816,-2.5831,-2.5848,-2.5699,-2.5702,-2.5704,-2.5812,0,-2.5088,-2.5208,-2.5219,-2.5326,-2.5383,-2.5374,-2.5433,-2.5473,-2.5492,-2.5544,-2.5565,-2.5624,-2.5596,-2.5617,-2.5661,-2.5686,-2.5746,-2.5678,-2.5752,-2.5755,-2.5741,-2.5867,-2.5883,-2.5983,-2.5826,-2.5829,-2.5831,0,-2.5227,-2.5276,-2.5389,-2.5436,-2.5461,-2.5513,-2.557,-2.5619,-2.5664,-2.5675,-2.5714,-2.5713,-2.5782,-2.5739,-2.5834,-2.5787,-2.5818,-2.5835,-2.5839,-2.5847,-2.5798,-2.5879,-2.6015,-2.603,-2.5853,-2.5851,-2.5849,0,-2.5305,-2.54,-2.548,-2.5505,-2.5561,-2.5598,-2.5624,-2.5666,-2.5702,-2.5751,-2.5774,-2.5831,-2.5862,-2.5905,-2.592,-2.5887,-2.6014,-2.5972,-2.6025,-2.6025,-2.6053,-2.6052,-2.6197,-2.6072,-2.6072,-2.6072,-2.6071,0,-2.5421,-2.549,-2.5516,-2.5565,-2.5642,-2.5653,-2.573,-2.5753,-2.579,-2.5844,-2.5839,-2.5889,-2.5905,-2.5957,-2.5969,-2.6046,-2.606,-2.6071,-2.6073,-2.6072,-2.607,-2.6092,-2.6086,-2.6076,-2.6075,-2.6074,-2.6073,0,-2.5522,-2.5541,-2.5628,-2.5674,-2.5687,-2.5742,-2.5781,-2.5829,-2.5847,-2.5914,-2.5931,-2.5959,-2.6021,-2.6039,-2.6113,-2.6121,-2.6212,-2.6207,-2.6197,-2.6197,-2.6249,-2.6244,-2.6415,-2.6438,-2.6297,-2.6298,-2.6299,0,-2.5595,-2.5648,-2.57,-2.5735,-2.5762,-2.5819,-2.5855,-2.5868,-2.5906,-2.5961,-2.6001,-2.6062,-2.6112,-2.6211,-2.6238,-2.6295,-2.6292,-2.6348,-2.6301,-2.6297,-2.6293,-2.629,-2.6296,-2.6357,-2.6359,-2.636,-2.6361,0,-2.5723,-2.573,-2.5782,-2.5839,-2.5882,-2.5927,-2.597,-2.5999,-2.6018,-2.6061,-2.6124,-2.6162,-2.6238,-2.6298,-2.6356,-2.6381,-2.6375,-2.6375,-2.6391,-2.639,-2.6382,-2.6387,-2.6222,-2.6371,-2.637,-2.637,-2.6369,-2.6369,-2.5812,-2.5859,-2.5903,-2.5961,-2.5995,-2.6035,-2.6082,-2.6105,-2.6158,-2.6221,-2.6225,-2.6293,-2.6336,-2.6412,-2.6441,-2.6494,-2.6478,-2.65,-2.6506,-2.6511,-2.6516,-2.6373,-2.6505,-2.6504,-2.6504,-2.6504,-2.6504,0,-2.594,-2.5968,-2.6021,-2.6082,-2.6128,-2.6117,-2.6164,-2.6203,-2.6263,-2.6304,-2.6352,-2.6425,-2.6483,-2.6515,-2.6573,-2.661,-2.6608,-2.6625,-2.6622,-2.6628,-2.6527,-2.6508,-2.6625,-2.6625,-2.6625,-2.6625,-2.6625,-2.6625,-2.6012,-2.6091,-2.6103,-2.6198,-2.6225,-2.6292,-2.6319,-2.6356,-2.6389,-2.647,-2.6518,-2.6538,-2.6575,-2.6636,-2.6689,-2.6696,-2.6718,-2.6737,-2.6743,-2.6648,-2.6636,-2.6624,-2.6606,-2.6742,-2.6742,-2.684,-2.6841,-2.6842]}]]